Location: Unspecified
(0.0000°N, 0.0000°E)
Time: 03:27:32
(UTC+00:00)

Vanguard 1 - Pass Details

Date: 13 February 2018
Orbit: 650 x 3833 km, 34.2° (Epoch: 17 February)

Event Time Altitude Azimuth Distance (km) Brightness Sun altitude
Exits shadow 04:29:02 16° 238° (WSW) 4,363 13.0 -25.5°
Maximum altitude 04:37:23 26° 197° (SSW) 4,464 13.3 -23.5°
Drops below altitude 10° 04:53:19 10° 147° (SSE) 6,709 14.9 -19.7°
Sets 05:00:54 0° 136° (SE) 7,946 15.7 -17.8°
